Regional Weather Roundup
Issued by NWS State College, PA

Home | Current Version | Previous Version | Graphics & Text | Print | Product List | Glossary On
Versions: 1 2 3 4 5 6 7 8 9 10 11 12 13 14 15 16 17 18 19 20 21 22 23 24 25 26 27 28 29 30 31 32 33 34 35 36 37 38 39 40 41 42 43 44 45 46 47 48 49 50
114
ASUS41 KCTP 111410
RWRCTP

REGIONAL WEATHER ROUNDUP
NATIONAL WEATHER SERVICE STATE COLLEGE PA
900 AM EST MON DEC 11 2017

Note: "fair" indicates few or no clouds below 12,000 feet with no
significant weather and/or obstructions to visibility.

* = STATION THAT DOES NOT REPORT PRECIPITATION /E.G. RAIN...SNOW...ETC/
    THUNDER OR FOG.

PAZ002>004-007>009-013>016-020>023-029>032-111500-
WESTERN PENNSYLVANIA

CITY           SKY/WX    TMP DP  RH WIND       PRES   REMARKS
ERIE           CLOUDY    28  23  81 SE3       30.01F
MEADVILLE      CLOUDY    27  20  75 W6        29.99S
FRANKLIN*      FLURRIES  27  22  81 SW3       29.99S
NEW CASTLE     CLOUDY    29  21  72 SW5       30.04R
BEAVER COUNTY  CLOUDY    28  21  74 W6        30.02S
BUTLER*        CLOUDY    29  20  69 W6        30.02F
PITTSBURGH INT CLOUDY    32  19  58 VRB6      30.02S
PITTSBURGH     CLOUDY    30  18  60 W5        30.02S
INDIANA*       CLOUDY    30  21  69 W8        30.05S
LATROBE        PTSUNNY   32  19  59 W7        30.05S
WASHINGTON CO* CLOUDY    31  20  63 W8        30.06S
$$

PAZ004>006-010>012-017>019-024>028-033>037-041-042-045-046-049>053-111500-
CENTRAL PENNSYLVANIA

CITY           SKY/WX    TMP DP  RH WIND       PRES   REMARKS
BRADFORD       LGT SNOW  25  22  88 W7        29.94R FOG
DUBOIS         CLOUDY    26  21  81 W8        29.97R HAZE
CLEARFIELD     CLOUDY    29  22  75 W8        29.99S
JOHNSTOWN      CLOUDY    27  19  72 W12       29.96S
ALTOONA        CLOUDY    33  21  61 NW7       30.01R
STATE COLLEGE  CLOUDY    30  21  69 W7        30.01R
WILLIAMSPORT   CLOUDY    35  23  61 W7        30.02R
SELINSGROVE    CLOUDY    34  23  64 SW3       30.05R
FT INDIANTOWN  CLOUDY    35  23  61 SW8       30.03S
CAPITAL CITY   CLOUDY    37  21  52 W5        30.05S
HARRISBURG     CLOUDY    36  25  64 CALM      30.05R
YORK           CLOUDY    36  24  62 W5        30.05R
$$

PAZ038>040-043-044-047-048-054-055-060>062-067>071-111500-
EASTERN PENNSYLVANIA

CITY           SKY/WX    TMP DP  RH WIND       PRES   REMARKS
SCRANTON       SUNNY     30  21  69 SW6       29.99R
MOUNT POCONO   MOSUNNY   25  19  78 W9        29.93R
ALLENTOWN      MOSUNNY   32  21  64 W8        30.03R
QUAKERTOWN*    MOSUNNY   34  19  55 W6        30.04R
READING        SUNNY     35  23  61 W6        30.03S
LANCASTER      CLOUDY    34  25  69 W6        30.05R
COATESVILLE    CLOUDY    34  23  64 W5        30.04F
POTTSTOWN      SUNNY     33  20  58 W3        30.06R
BLUE BELL      SUNNY     36  25  64 W5        30.06S
DOYLESTOWN     SUNNY     34  22  61 W7        30.03R
WILLOW GROVE   NOT AVBL
NORTH PHILA    SUNNY     38  26  62 W7        30.07R
PHILADELPHIA   PTSUNNY   37  25  61 W12       30.07R
$$




USA.gov is the U.S. government's official web portal to all federal, state and local government web resources and services.